Weather History for Grant County, OR

Change the Weather History Date:

Thursday, July 18, 2013

  Actual Average (KBNO) Record (KBNO)
Temperature  
Mean Temperature 76 °F 68 °F  
Max Temperature 95 °F 87 °F 101 °F (1960)
Min Temperature 56 °F 48 °F 33 °F (1999)
Degree Days  
Heating Degree Days 0 2  
Month to date heating degree days 44  
Since 1 June heating degree days 262  
Since 1 July heating degree days 44  
Cooling Degree Days 10 4  
Month to date cooling degree days 54  
Year to date cooling degree days 77  
Since 1 June cooling degree days 74  
Growing Degree Days 26 (Base 50)    
Moisture  
Dew Point 34 °F    
Average Humidity 25    
Maximum Humidity 50    
Minimum Humidity 10    
Precipitation  
Precipitation 0.00 in 0.01 in 0.19 in (1987)
Month to date precipitation 0.24  
Year to date precipitation 6.46  
Sea Level Pressure  
Sea Level Pressure 30.16 in    
Wind  
Wind Speed 5 mph (North)    
Max Wind Speed 15 mph    
Max Gust Speed 23 mph    
Visibility 10 miles    
Events      
T = Trace of Precipitation, MM = Missing Value Source: NWS Daily Summary

Daily Weather History Graph

Daily Weather History Graph

Search for Another Location

Airport:

Trip Planner

Search our weather history database for the weather conditions in past years. The results will help you decide how hot, cold, wet, or windy it might be!

Date:

Astronomy

Jul. 18, 2013 Rise Set
Actual Time 5:28 AM PDT 8:35 PM PDT
Civil Twilight 4:53 AM PDT 9:09 PM PDT
Nautical Twilight 4:08 AM PDT 9:54 PM PDT
Astronomical Twilight 3:14 AM PDT 10:48 PM PDT
Moon 4:36 PM PDT (7/18) 1:25 AM PDT (7/18)
Length of Visible Light 16h 16m
Length of Day
15h 06m
Waxing Gibbous, 78% of the Moon is Illuminated
Jul 18
Waxing Gibbous
Jul 22
Full
Jul 29
Last Quarter
Aug 6
New
Aug 14
First Quarter

Hourly Weather History & Observations

Time (PDT) Temp. Dew Point Humidity Pressure Visibility Wind Dir Wind Speed Gust Speed Precip Events Conditions
12:15 AM 68.5 °F 37.6 °F 32% 30.19 in 10.0 mi North 6.9 mph - N/A   Clear
12:35 AM 68.4 °F 36.9 °F 31% 30.19 in 10.0 mi North 3.5 mph - N/A   Clear
12:55 AM 68.2 °F 36.9 °F 32% 30.19 in 10.0 mi WSW 3.5 mph - N/A   Clear
1:15 AM 67.3 °F 37.0 °F 33% 30.19 in 10.0 mi Calm Calm - N/A   Clear
1:35 AM 67.5 °F 37.2 °F 33% 30.19 in 10.0 mi WSW 4.6 mph - N/A   Clear
1:55 AM 66.2 °F 37.0 °F 34% 30.20 in 10.0 mi Calm Calm - N/A   Clear
2:15 AM 62.8 °F 36.5 °F 38% 30.19 in 10.0 mi Calm Calm - N/A   Clear
2:35 AM 65.7 °F 37.0 °F 35% 30.19 in 10.0 mi Calm Calm - N/A   Clear
2:55 AM 61.3 °F 36.9 °F 40% 30.20 in 10.0 mi Calm Calm - N/A   Clear
3:15 AM 61.7 °F 36.3 °F 39% 30.20 in 10.0 mi ESE 3.5 mph - N/A   Clear
3:35 AM 60.8 °F 36.9 °F 41% 30.20 in 10.0 mi Calm Calm - N/A   Clear
3:55 AM 58.5 °F 37.0 °F 45% 30.20 in 10.0 mi ESE 3.5 mph - N/A   Clear
4:15 AM 58.8 °F 37.4 °F 45% 30.20 in 10.0 mi East 4.6 mph - N/A   Clear
4:35 AM 58.8 °F 37.9 °F 46% 30.21 in 10.0 mi East 5.8 mph - N/A   Clear
4:55 AM 58.6 °F 37.6 °F 46% 30.21 in 10.0 mi East 5.8 mph - N/A   Clear
5:15 AM 58.3 °F 37.9 °F 47% 30.21 in 10.0 mi East 6.9 mph - N/A   Clear
5:35 AM 56.5 °F 37.4 °F 49% 30.22 in 10.0 mi East 9.2 mph - N/A   Clear
5:55 AM 56.3 °F 37.6 °F 50% 30.23 in 10.0 mi East 9.2 mph - N/A   Clear
6:15 AM 57.9 °F 37.2 °F 46% 30.23 in 10.0 mi East 10.4 mph - N/A   Clear
6:35 AM 58.3 °F 37.2 °F 45% 30.23 in 10.0 mi ESE 10.4 mph - N/A   Clear
6:55 AM 59.9 °F 36.9 °F 42% 30.24 in 10.0 mi ESE 10.4 mph - N/A   Clear
7:15 AM 60.4 °F 37.8 °F 43% 30.24 in 10.0 mi ESE 8.1 mph - N/A   Clear
7:35 AM 61.5 °F 38.3 °F 42% 30.24 in 10.0 mi ESE 8.1 mph - N/A   Clear
7:55 AM 63.9 °F 37.6 °F 38% 30.24 in 10.0 mi ESE 8.1 mph - N/A   Clear
8:15 AM 66.7 °F 37.6 °F 34% 30.24 in 10.0 mi ESE 5.8 mph - N/A   Clear
8:35 AM 68.5 °F 38.5 °F 33% 30.24 in 10.0 mi East 3.5 mph - N/A   Clear
8:55 AM 70.2 °F 38.8 °F 32% 30.24 in 10.0 mi Calm Calm - N/A   Clear
9:15 AM 72.7 °F 37.0 °F 27% 30.23 in 10.0 mi Calm Calm - N/A   Clear
9:35 AM 73.9 °F 37.0 °F 26% 30.23 in 10.0 mi Calm Calm - N/A   Clear
9:55 AM 75.4 °F 35.4 °F 23% 30.23 in 10.0 mi Calm Calm - N/A   Clear
10:15 AM 77.2 °F 32.5 °F 20% 30.21 in 10.0 mi WNW 4.6 mph - N/A   Clear
10:35 AM 78.8 °F 31.8 °F 18% 30.21 in 10.0 mi WNW 4.6 mph - N/A   Clear
10:55 AM 80.2 °F 32.0 °F 17% 30.21 in 10.0 mi Calm Calm - N/A   Clear
11:15 AM 82.0 °F 32.2 °F 16% 30.20 in 10.0 mi Calm Calm - N/A   Clear
11:35 AM 83.5 °F 32.9 °F 16% 30.19 in 10.0 mi Calm Calm - N/A   Clear
11:55 AM 85.1 °F 33.8 °F 16% 30.19 in 10.0 mi NE 3.5 mph - N/A   Clear
12:15 PM 86.4 °F 34.3 °F 16% 30.18 in 10.0 mi NE 3.5 mph - N/A   Clear
12:35 PM 87.4 °F 34.2 °F 15% 30.17 in 10.0 mi North 5.8 mph - N/A   Clear
12:55 PM 88.7 °F 32.4 °F 13% 30.16 in 10.0 mi NW 5.8 mph - N/A   Clear
1:15 PM 91.2 °F 29.3 °F 11% 30.16 in 10.0 mi North 3.5 mph - N/A   Clear
1:35 PM 91.9 °F 31.6 °F 12% 30.15 in 10.0 mi NW 5.8 mph - N/A   Clear
1:55 PM 91.6 °F 31.3 °F 12% 30.14 in 10.0 mi North 4.6 mph - N/A   Clear
2:15 PM 93.0 °F 30.7 °F 11% 30.13 in 10.0 mi NE 4.6 mph - N/A   Clear
3:15 PM 94.3 °F 30.9 °F 11% 30.11 in 10.0 mi North 4.6 mph - N/A   Clear
3:35 PM 93.6 °F 30.2 °F 11% 30.10 in 10.0 mi NE 5.8 mph - N/A   Clear
3:55 PM 93.9 °F 30.7 °F 11% 30.09 in 10.0 mi NE 8.1 mph - N/A   Clear
4:15 PM 95.0 °F 30.9 °F 10% 30.08 in 10.0 mi North 3.5 mph - N/A   Clear
4:35 PM 94.6 °F 30.7 °F 10% 30.08 in 10.0 mi WNW 10.4 mph - N/A   Clear
4:55 PM 93.9 °F 29.7 °F 10% 30.07 in 10.0 mi NNW 4.6 mph - N/A   Clear
5:15 PM 95.2 °F 30.4 °F 10% 30.07 in 10.0 mi NW 10.4 mph - N/A   Clear
5:35 PM 94.8 °F 30.7 °F 10% 30.06 in 10.0 mi West 6.9 mph - N/A   Clear
5:55 PM 94.3 °F 31.1 °F 11% 30.05 in 10.0 mi WNW 8.1 mph - N/A   Clear
6:15 PM 94.6 °F 30.6 °F 10% 30.05 in 10.0 mi NW 12.7 mph 16.1 mph N/A   Clear
6:35 PM 93.6 °F 31.5 °F 11% 30.05 in 10.0 mi North 11.5 mph 16.1 mph N/A   Clear
6:55 PM 92.3 °F 31.5 °F 12% 30.06 in 10.0 mi North 11.5 mph 16.1 mph N/A   Clear
7:15 PM 89.2 °F 32.0 °F 13% 30.06 in 10.0 mi NNW 15.0 mph 23.0 mph N/A   Clear
7:35 PM 87.1 °F 32.0 °F 14% 30.07 in 10.0 mi NNW 12.7 mph 21.9 mph N/A   Clear
7:55 PM 85.6 °F 32.0 °F 15% 30.08 in 10.0 mi North 11.5 mph 19.6 mph N/A   Clear
8:15 PM 83.5 °F 32.4 °F 16% 30.10 in 10.0 mi Calm Calm - N/A   Clear
8:35 PM 82.4 °F 32.2 °F 16% 30.11 in 10.0 mi East 3.5 mph - N/A   Clear
8:55 PM 81.3 °F 32.5 °F 17% 30.12 in 10.0 mi Calm Calm - N/A   Clear
9:15 PM 78.4 °F 33.8 °F 20% 30.13 in 10.0 mi NW 4.6 mph - N/A   Clear
9:35 PM 78.3 °F 33.4 °F 20% 30.13 in 10.0 mi NNW 6.9 mph - N/A   Clear
9:55 PM 76.6 °F 33.4 °F 21% 30.14 in 10.0 mi NNW 6.9 mph - N/A   Clear
10:15 PM 75.4 °F 33.4 °F 22% 30.14 in 10.0 mi NW 6.9 mph - N/A   Clear
10:35 PM 73.6 °F 33.3 °F 23% 30.14 in 10.0 mi NW 6.9 mph - N/A   Clear
10:55 PM 73.6 °F 32.9 °F 23% 30.14 in 10.0 mi WNW 4.6 mph - N/A   Clear
11:15 PM 73.4 °F 32.5 °F 22% 30.14 in 10.0 mi NW 6.9 mph - N/A   Clear
11:35 PM 73.0 °F 32.0 °F 22% 30.14 in 10.0 mi WNW 8.1 mph - N/A   Clear
11:55 PM 73.4 °F 31.6 °F 22% 30.15 in 10.0 mi WNW 3.5 mph - N/A   Clear